This is the latest recevied weather packets stored in our database for station/object AK4NG. If no packets are shown the sender has not sent any weather packets the latest 10 day(s).
| Time | Temp. | Humidity | Pressure | Rain* | Wind** | Luminosity | Snow |
|---|---|---|---|---|---|---|---|
| 1778092252 | 25° C | 79% | 1016.1 hPa | 0 mm | - | 211 W/m² | - |
| 1778091949 | 25° C | 79% | 1016.2 hPa | 0 mm | - | 272 W/m² | - |
| 1778091647 | 25° C | 82% | 1016 hPa | 0 mm | - | 228 W/m² | - |
| 1778091345 | 25° C | 79% | 1016.2 hPa | 0 mm | - | 207 W/m² | - |
| 1778091042 | 25.56° C | 76% | 1016.2 hPa | 0 mm | - | 218 W/m² | - |
| 1778090738 | 25.56° C | 74% | 1016.4 hPa | 0 mm | - | 201 W/m² | - |
| 1778090435 | 26.11° C | 74% | 1016.3 hPa | 0 mm | - | 192 W/m² | - |
| 1778090131 | 25.56° C | 75% | 1016.3 hPa | 0 mm | - | 280 W/m² | - |
| 1778089827 | 25.56° C | 74% | 1016.4 hPa | 0 mm | - | 163 W/m² | - |
| 1778089526 | 26.11° C | 73% | 1016.2 hPa | 0 mm | - | 215 W/m² | - |
| 1778089221 | 26.67° C | 72% | 1016.2 hPa | 0 mm | - | 185 W/m² | - |
| 1778088919 | 26.67° C | 70% | 1016.6 hPa | 0 mm | - | 281 W/m² | - |
| 1778088616 | 26.67° C | 69% | 1016.4 hPa | 0 mm | - | 304 W/m² | - |
| 1778088314 | 26.67° C | 72% | 1016.6 hPa | 0 mm | - | 439 W/m² | - |
| 1778088009 | 26.67° C | 72% | 1016.6 hPa | 0 mm | - | 440 W/m² | - |
| 1778087707 | 26.67° C | 70% | 1016.6 hPa | 0 mm | - | 480 W/m² | - |
| 1778087405 | 26.67° C | 69% | 1016.6 hPa | 0 mm | - | 414 W/m² | - |
| 1778087102 | 26.67° C | 70% | 1016.5 hPa | 0 mm | - | 613 W/m² | - |
| 1778086800 | 26.11° C | 70% | 1016.6 hPa | 0 mm | - | 674 W/m² | - |
| 1778086498 | 26.67° C | 71% | 1016.7 hPa | 0 mm | - | 450 W/m² | - |
| 1778086194 | 26.11° C | 72% | 1016.6 hPa | 0 mm | - | 435 W/m² | - |
| 1778085890 | 26.11° C | 71% | 1016.7 hPa | 0 mm | - | 447 W/m² | - |
| 1778085588 | 26.11° C | 72% | 1016.9 hPa | 0 mm | - | 258 W/m² | - |
| 1778085283 | 26.11° C | 72% | 1017.1 hPa | 0 mm | - | 311 W/m² | - |
| 1778084978 | 26.11° C | 72% | 1017.2 hPa | 0 mm | - | 453 W/m² | - |
* Rain latest hour (hover to see other rain measurements)
** Current wind speed in m/s (hover to see current wind gust speed)